JES3046 SAZS-SAEZ

Flight info

Callsign JES3046
Flight time 1h 44m
Altitude 35000
Route LIMAY UZ109 ISMIL UT655 ASADA
Aircraft A21N/M-SDE3FGHIRWY/LB1

Departure

Time 2026-04-30 20:32
Airport Teniente Luis Candelaria International Airport (SAZS)

Arrival

Time 2026-04-30 22:17
Airport Ezeiza International Airport - Ministro Pistarini (SAEZ)
Time Latitude Longitude Altitude Speed Heading
2026-04-30 20:13 -41.14677 -71.16148 2784 ft 0 kts 45°
2026-04-30 20:20 -41.14686 -71.16161 2784 ft 2 kts 45°
2026-04-30 20:20 -41.14695 -71.16173 2784 ft 2 kts 45°
2026-04-30 20:20 -41.14705 -71.16186 2784 ft 2 kts 45°
2026-04-30 20:20 -41.14714 -71.16199 2784 ft 2 kts 45°
2026-04-30 20:21 -41.14724 -71.16212 2784 ft 2 kts 45°
2026-04-30 20:21 -41.14734 -71.16225 2784 ft 2 kts 45°
2026-04-30 20:21 -41.14744 -71.16238 2784 ft 2 kts 45°
2026-04-30 20:21 -41.14754 -71.16252 2784 ft 2 kts 45°
2026-04-30 20:22 -41.14764 -71.16265 2784 ft 1 kts 29°
2026-04-30 20:22 -41.14777 -71.16272 2784 ft 2 kts 22°
2026-04-30 20:22 -41.14790 -71.16281 2784 ft 2 kts 27°
2026-04-30 20:22 -41.14803 -71.16290 2784 ft 2 kts 25°
2026-04-30 20:23 -41.14814 -71.16296 2784 ft 0 kts 26°
2026-04-30 20:26 -41.14813 -71.16295 2784 ft 0 kts 26°
2026-04-30 20:26 -41.14793 -71.16273 2784 ft 3 kts 64°
2026-04-30 20:26 -41.14801 -71.16217 2784 ft 9 kts 114°
2026-04-30 20:27 -41.14883 -71.15979 2784 ft 19 kts 115°
2026-04-30 20:27 -41.15021 -71.15580 2784 ft 24 kts 115°
2026-04-30 20:28 -41.15147 -71.15215 2784 ft 22 kts 114°
2026-04-30 20:28 -41.15263 -71.14880 2784 ft 20 kts 115°
2026-04-30 20:29 -41.15375 -71.14551 2784 ft 10 kts 115°
2026-04-30 20:30 -41.15403 -71.14475 2784 ft 0 kts 121°
2026-04-30 20:30 -41.15501 -71.14503 2784 ft 8 kts 229°
2026-04-30 20:31 -41.15324 -71.15162 2784 ft 96 kts 292°
2026-04-30 20:32 -41.14121 -71.18720 3677 ft 172 kts 296°
2026-04-30 20:32 -41.13050 -71.21742 4538 ft 200 kts 296°
2026-04-30 20:33 -41.12443 -71.23453 4912 ft 216 kts 295°
2026-04-30 20:33 -41.11142 -71.27268 6044 ft 236 kts 292°
2026-04-30 20:33 -41.10518 -71.29200 6726 ft 239 kts 292°
2026-04-30 20:34 -41.09190 -71.33212 7997 ft 247 kts 292°
2026-04-30 20:34 -41.07332 -71.37066 9176 ft 262 kts 323°
2026-04-30 20:35 -41.05640 -71.37914 9718 ft 272 kts 353°
2026-04-30 20:35 -41.03825 -71.37568 10226 ft 280 kts 24°
2026-04-30 20:35 -41.01614 -71.33727 11324 ft 279 kts 84°
2026-04-30 20:36 -41.01472 -71.31202 11973 ft 277 kts 90°
2026-04-30 20:36 -41.01394 -71.28649 12568 ft 279 kts 89°
2026-04-30 20:36 -41.00368 -71.23677 13665 ft 289 kts 65°
2026-04-30 20:37 -40.99415 -71.21319 14221 ft 292 kts 63°
2026-04-30 20:37 -40.98416 -71.18964 14763 ft 294 kts 63°
2026-04-30 20:37 -40.97425 -71.16616 15292 ft 296 kts 64°
2026-04-30 20:37 -40.96429 -71.14238 15816 ft 298 kts 64°
2026-04-30 20:38 -40.95423 -71.11816 16334 ft 300 kts 64°
2026-04-30 20:38 -40.94416 -71.09385 16779 ft 305 kts 65°
2026-04-30 20:38 -40.93393 -71.06909 16999 ft 317 kts 65°
2026-04-30 20:39 -40.91302 -71.01857 17424 ft 340 kts 64°
2026-04-30 20:39 -40.90145 -70.99071 17642 ft 351 kts 64°
2026-04-30 20:39 -40.88964 -70.96230 17868 ft 361 kts 64°
2026-04-30 20:40 -40.86534 -70.90405 18883 ft 362 kts 64°
2026-04-30 20:40 -40.85323 -70.87504 19408 ft 362 kts 64°
2026-04-30 20:40 -40.84099 -70.84575 19904 ft 362 kts 63°
2026-04-30 20:41 -40.81672 -70.78771 20842 ft 363 kts 63°
2026-04-30 20:41 -40.80447 -70.75855 21262 ft 365 kts 63°
2026-04-30 20:41 -40.79218 -70.72930 21643 ft 367 kts 63°
2026-04-30 20:41 -40.77978 -70.69982 22010 ft 370 kts 64°
2026-04-30 20:42 -40.76730 -70.67011 22369 ft 372 kts 64°
2026-04-30 20:42 -40.75416 -70.64055 22712 ft 376 kts 60°
2026-04-30 20:42 -40.72225 -70.58546 23355 ft 385 kts 52°
2026-04-30 20:43 -40.70410 -70.55927 23671 ft 388 kts 51°
2026-04-30 20:43 -40.68568 -70.53306 23953 ft 391 kts 51°
2026-04-30 20:43 -40.66714 -70.50671 24245 ft 394 kts 51°
2026-04-30 20:44 -40.62975 -70.45348 24824 ft 399 kts 52°
2026-04-30 20:44 -40.61106 -70.42652 25101 ft 401 kts 53°
2026-04-30 20:44 -40.57673 -70.36944 25638 ft 404 kts 58°
2026-04-30 20:45 -40.54411 -70.31210 26135 ft 410 kts 57°
2026-04-30 20:45 -40.52710 -70.28225 26385 ft 412 kts 57°
2026-04-30 20:45 -40.50982 -70.25197 26637 ft 415 kts 57°
2026-04-30 20:46 -40.45717 -70.15997 27352 ft 423 kts 58°
2026-04-30 20:46 -40.43946 -70.12910 27583 ft 426 kts 58°
2026-04-30 20:47 -40.40375 -70.06697 28035 ft 431 kts 58°
2026-04-30 20:47 -40.38538 -70.03507 28259 ft 434 kts 58°
2026-04-30 20:48 -40.34887 -69.97171 28692 ft 439 kts 58°
2026-04-30 20:48 -40.33030 -69.93954 28906 ft 442 kts 58°
2026-04-30 20:48 -40.31173 -69.90741 29115 ft 445 kts 58°
2026-04-30 20:48 -40.29310 -69.87521 29320 ft 447 kts 58°
2026-04-30 20:49 -40.27433 -69.84280 29523 ft 450 kts 58°
2026-04-30 20:49 -40.25548 -69.81030 29684 ft 449 kts 58°
2026-04-30 20:50 -40.19874 -69.71267 29488 ft 451 kts 58°
2026-04-30 20:50 -40.16216 -69.64986 29544 ft 453 kts 58°
2026-04-30 20:50 -40.14267 -69.61646 29808 ft 454 kts 57°
2026-04-30 20:51 -40.12358 -69.58376 30040 ft 456 kts 57°
2026-04-30 20:51 -40.08479 -69.51741 30413 ft 461 kts 57°
2026-04-30 20:51 -40.06529 -69.48411 30596 ft 464 kts 57°
2026-04-30 20:52 -40.04561 -69.45055 30778 ft 466 kts 57°
2026-04-30 20:52 -40.02590 -69.41698 30956 ft 469 kts 57°
2026-04-30 20:52 -39.98581 -69.34880 31334 ft 473 kts 56°
2026-04-30 20:53 -39.96592 -69.31504 31571 ft 474 kts 56°
2026-04-30 20:53 -39.94566 -69.28069 31811 ft 475 kts 56°
2026-04-30 20:53 -39.92562 -69.24675 32041 ft 476 kts 56°
2026-04-30 20:54 -39.88518 -69.17837 32482 ft 477 kts 56°
2026-04-30 20:54 -39.86508 -69.14442 32684 ft 478 kts 56°
2026-04-30 20:54 -39.84483 -69.11025 32889 ft 479 kts 56°
2026-04-30 20:55 -39.80384 -69.04112 33140 ft 485 kts 55°
2026-04-30 20:55 -39.76226 -68.97152 33384 ft 490 kts 56°
2026-04-30 20:56 -39.72053 -68.90178 33847 ft 489 kts 57°
2026-04-30 20:56 -39.69979 -68.86711 34093 ft 488 kts 58°
2026-04-30 20:56 -39.65831 -68.79765 34497 ft 489 kts 58°
2026-04-30 20:57 -39.63743 -68.76273 34663 ft 489 kts 58°
2026-04-30 20:57 -39.61663 -68.72798 34777 ft 492 kts 58°
2026-04-30 20:57 -39.59569 -68.69307 34782 ft 493 kts 57°
2026-04-30 20:58 -39.53267 -68.58844 34786 ft 493 kts 57°
2026-04-30 20:58 -39.49040 -68.51846 34787 ft 493 kts 57°
2026-04-30 20:59 -39.42650 -68.41290 34786 ft 494 kts 57°
2026-04-30 21:00 -39.34187 -68.27369 34788 ft 495 kts 57°
2026-04-30 21:01 -39.27777 -68.16858 34786 ft 494 kts 57°
2026-04-30 21:02 -39.21409 -68.06454 34786 ft 493 kts 57°
2026-04-30 21:02 -39.17170 -67.99545 34786 ft 493 kts 57°
2026-04-30 21:03 -39.12899 -67.92602 34787 ft 493 kts 57°
2026-04-30 21:03 -39.08654 -67.85714 34787 ft 493 kts 57°
2026-04-30 21:04 -39.04425 -67.78869 34787 ft 493 kts 57°
2026-04-30 21:04 -38.98032 -67.68550 34787 ft 493 kts 57°
2026-04-30 21:05 -38.93757 -67.61668 34787 ft 494 kts 57°
2026-04-30 21:05 -38.89465 -67.54772 34785 ft 494 kts 57°
2026-04-30 21:06 -38.85175 -67.47894 34785 ft 494 kts 58°
2026-04-30 21:06 -38.80899 -67.41052 34786 ft 494 kts 58°
2026-04-30 21:07 -38.76601 -67.34191 34785 ft 494 kts 57°
2026-04-30 21:07 -38.72306 -67.27348 34786 ft 495 kts 57°
2026-04-30 21:08 -38.67999 -67.20499 34788 ft 497 kts 57°
2026-04-30 21:08 -38.63672 -67.13624 34790 ft 501 kts 56°
2026-04-30 21:09 -38.59286 -67.06675 34785 ft 495 kts 55°
2026-04-30 21:09 -38.55018 -66.99944 34790 ft 490 kts 55°
2026-04-30 21:10 -38.50728 -66.93180 34784 ft 486 kts 54°
2026-04-30 21:10 -38.46450 -66.86465 34785 ft 488 kts 54°
2026-04-30 21:11 -38.42175 -66.79760 34783 ft 486 kts 54°
2026-04-30 21:11 -38.37868 -66.73017 34787 ft 493 kts 54°
2026-04-30 21:12 -38.33739 -66.65971 34787 ft 496 kts 60°
2026-04-30 21:12 -38.30289 -66.58414 34788 ft 496 kts 66°
2026-04-30 21:13 -38.27075 -66.50752 34781 ft 486 kts 66°
2026-04-30 21:13 -38.23941 -66.43304 34786 ft 479 kts 66°
2026-04-30 21:14 -38.20790 -66.35834 34787 ft 483 kts 66°
2026-04-30 21:14 -38.17613 -66.28339 34787 ft 487 kts 65°
2026-04-30 21:15 -38.14420 -66.20841 34785 ft 476 kts 65°
2026-04-30 21:15 -38.11280 -66.13478 34787 ft 474 kts 65°
2026-04-30 21:16 -38.08148 -66.06146 34791 ft 474 kts 65°
2026-04-30 21:16 -38.05014 -65.98827 34799 ft 474 kts 65°
2026-04-30 21:17 -38.01865 -65.91492 34806 ft 474 kts 65°
2026-04-30 21:17 -37.98712 -65.84164 34809 ft 473 kts 65°
2026-04-30 21:18 -37.95572 -65.76885 34811 ft 473 kts 65°
2026-04-30 21:18 -37.92380 -65.69500 34811 ft 474 kts 65°
2026-04-30 21:19 -37.89207 -65.62178 34809 ft 473 kts 65°
2026-04-30 21:19 -37.86040 -65.54887 34811 ft 473 kts 65°
2026-04-30 21:20 -37.82861 -65.47585 34811 ft 473 kts 65°
2026-04-30 21:20 -37.79690 -65.40316 34811 ft 473 kts 65°
2026-04-30 21:21 -37.76532 -65.33095 34810 ft 473 kts 65°
2026-04-30 21:22 -37.71757 -65.22205 34811 ft 473 kts 65°
2026-04-30 21:23 -37.65395 -65.07752 34811 ft 473 kts 65°
2026-04-30 21:23 -37.60617 -64.96925 34811 ft 473 kts 64°
2026-04-30 21:24 -37.57449 -64.89762 34812 ft 472 kts 63°
2026-04-30 21:24 -37.54267 -64.82597 34813 ft 469 kts 62°
2026-04-30 21:25 -37.49526 -64.71975 34811 ft 465 kts 62°
2026-04-30 21:26 -37.44784 -64.61377 34811 ft 465 kts 62°
2026-04-30 21:27 -37.40009 -64.50729 34811 ft 465 kts 62°
2026-04-30 21:27 -37.36828 -64.43656 34811 ft 465 kts 62°
2026-04-30 21:28 -37.31998 -64.32973 34811 ft 465 kts 60°
2026-04-30 21:29 -37.27164 -64.22404 34811 ft 466 kts 60°
2026-04-30 21:30 -37.19221 -64.05112 34811 ft 466 kts 60°
2026-04-30 21:31 -37.11074 -63.87468 34811 ft 466 kts 60°
2026-04-30 21:32 -37.06172 -63.76889 34810 ft 471 kts 60°
2026-04-30 21:32 -37.02850 -63.69736 34810 ft 475 kts 59°
2026-04-30 21:33 -36.97820 -63.58939 34811 ft 479 kts 58°
2026-04-30 21:34 -36.94468 -63.51768 34812 ft 480 kts 58°
2026-04-30 21:34 -36.89411 -63.40997 34812 ft 480 kts 58°
2026-04-30 21:35 -36.86016 -63.33779 34810 ft 480 kts 57°
2026-04-30 21:35 -36.82624 -63.26579 34811 ft 480 kts 57°
2026-04-30 21:36 -36.79222 -63.19374 34811 ft 480 kts 57°
2026-04-30 21:37 -36.72493 -63.05160 34811 ft 480 kts 57°
2026-04-30 21:37 -36.69091 -62.97994 34811 ft 479 kts 57°
2026-04-30 21:38 -36.65687 -62.90841 34812 ft 479 kts 56°
2026-04-30 21:38 -36.62310 -62.83765 34811 ft 478 kts 56°
2026-04-30 21:39 -36.58912 -62.76667 34811 ft 478 kts 56°
2026-04-30 21:39 -36.55504 -62.69558 34811 ft 478 kts 56°
2026-04-30 21:40 -36.52104 -62.62478 34811 ft 478 kts 56°
2026-04-30 21:40 -36.48676 -62.55353 34811 ft 478 kts 56°
2026-04-30 21:41 -36.45256 -62.48262 34811 ft 478 kts 56°
2026-04-30 21:41 -36.41840 -62.41195 34811 ft 478 kts 56°
2026-04-30 21:42 -36.38420 -62.34130 34811 ft 478 kts 56°
2026-04-30 21:42 -36.35009 -62.27097 34811 ft 477 kts 55°
2026-04-30 21:43 -36.31592 -62.20073 34811 ft 477 kts 55°
2026-04-30 21:43 -36.28176 -62.13066 34811 ft 477 kts 55°
2026-04-30 21:44 -36.24746 -62.06042 34811 ft 477 kts 55°
2026-04-30 21:44 -36.21287 -61.98975 34811 ft 477 kts 55°
2026-04-30 21:45 -36.17839 -61.91944 34811 ft 477 kts 55°
2026-04-30 21:45 -36.14386 -61.84920 34811 ft 477 kts 55°
2026-04-30 21:46 -36.10936 -61.77916 34811 ft 477 kts 56°
2026-04-30 21:46 -36.07474 -61.70872 34811 ft 477 kts 56°
2026-04-30 21:47 -36.04008 -61.63837 34812 ft 477 kts 56°
2026-04-30 21:47 -36.00558 -61.56850 34812 ft 477 kts 56°
2026-04-30 21:48 -35.97082 -61.49829 34812 ft 477 kts 56°
2026-04-30 21:48 -35.93644 -61.42900 34812 ft 477 kts 56°
2026-04-30 21:49 -35.90174 -61.35923 34818 ft 477 kts 56°
2026-04-30 21:49 -35.86738 -61.29008 34837 ft 477 kts 55°
2026-04-30 21:50 -35.83292 -61.22021 34866 ft 477 kts 55°
2026-04-30 21:50 -35.79853 -61.15063 34899 ft 477 kts 55°
2026-04-30 21:51 -35.76397 -61.08089 34923 ft 476 kts 55°
2026-04-30 21:51 -35.72956 -61.01166 34937 ft 476 kts 55°
2026-04-30 21:52 -35.69516 -60.94259 34943 ft 476 kts 55°
2026-04-30 21:52 -35.66069 -60.87352 34947 ft 476 kts 55°
2026-04-30 21:53 -35.62624 -60.80464 34691 ft 475 kts 55°
2026-04-30 21:53 -35.60896 -60.77014 33933 ft 480 kts 55°
2026-04-30 21:53 -35.59135 -60.73510 32950 ft 487 kts 55°
2026-04-30 21:54 -35.57364 -60.69987 32010 ft 491 kts 56°
2026-04-30 21:54 -35.55577 -60.66434 31241 ft 491 kts 56°
2026-04-30 21:54 -35.53801 -60.62897 30666 ft 487 kts 56°
2026-04-30 21:54 -35.52050 -60.59414 30153 ft 482 kts 56°
2026-04-30 21:55 -35.50280 -60.55898 29650 ft 476 kts 56°
2026-04-30 21:55 -35.48561 -60.52487 29165 ft 471 kts 56°
2026-04-30 21:55 -35.46840 -60.49078 28678 ft 466 kts 56°
2026-04-30 21:55 -35.45137 -60.45708 28197 ft 462 kts 56°
2026-04-30 21:56 -35.43474 -60.42419 27725 ft 457 kts 56°
2026-04-30 21:56 -35.41800 -60.39114 27248 ft 453 kts 56°
2026-04-30 21:56 -35.40149 -60.35857 26775 ft 449 kts 56°
2026-04-30 21:56 -35.38514 -60.32634 26307 ft 445 kts 56°
2026-04-30 21:57 -35.36869 -60.29395 25836 ft 441 kts 56°
2026-04-30 21:57 -35.35248 -60.26208 25369 ft 437 kts 56°
2026-04-30 21:57 -35.33654 -60.23077 24909 ft 433 kts 56°
2026-04-30 21:57 -35.32082 -60.19987 24455 ft 429 kts 56°
2026-04-30 21:58 -35.30505 -60.16893 23996 ft 426 kts 56°
2026-04-30 21:58 -35.28942 -60.13829 23540 ft 422 kts 56°
2026-04-30 21:58 -35.27404 -60.10818 23086 ft 419 kts 56°
2026-04-30 21:58 -35.25873 -60.07823 22634 ft 416 kts 56°
2026-04-30 21:59 -35.24337 -60.04821 22176 ft 413 kts 56°
2026-04-30 21:59 -35.22831 -60.01879 21727 ft 410 kts 56°
2026-04-30 21:59 -35.21424 -59.98899 21250 ft 408 kts 61°
2026-04-30 22:00 -35.18926 -59.92699 20103 ft 407 kts 63°
2026-04-30 22:00 -35.16453 -59.86536 18896 ft 407 kts 63°
2026-04-30 22:00 -35.15190 -59.83435 18290 ft 406 kts 63°
2026-04-30 22:01 -35.13942 -59.80387 17880 ft 399 kts 63°
2026-04-30 22:01 -35.12702 -59.77370 17469 ft 394 kts 63°
2026-04-30 22:01 -35.11494 -59.74438 17071 ft 388 kts 63°
2026-04-30 22:01 -35.10280 -59.71500 16663 ft 383 kts 63°
2026-04-30 22:02 -35.09100 -59.68645 16211 ft 379 kts 63°
2026-04-30 22:02 -35.07915 -59.65784 15733 ft 376 kts 63°
2026-04-30 22:02 -35.06745 -59.62962 15253 ft 372 kts 63°
2026-04-30 22:02 -35.05582 -59.60160 14676 ft 371 kts 63°
2026-04-30 22:03 -35.04423 -59.57369 14200 ft 368 kts 63°
2026-04-30 22:03 -35.03264 -59.54579 13760 ft 364 kts 63°
2026-04-30 22:03 -35.02131 -59.51853 13339 ft 360 kts 63°
2026-04-30 22:03 -35.01006 -59.49149 12923 ft 356 kts 63°
2026-04-30 22:04 -34.99889 -59.46467 12512 ft 353 kts 63°
2026-04-30 22:04 -34.98789 -59.43830 12106 ft 349 kts 63°
2026-04-30 22:04 -34.96616 -59.38625 11300 ft 342 kts 63°
2026-04-30 22:05 -34.95536 -59.36039 10895 ft 339 kts 63°
2026-04-30 22:05 -34.94471 -59.33493 10493 ft 336 kts 62°
2026-04-30 22:05 -34.93414 -59.30970 10117 ft 332 kts 62°
2026-04-30 22:05 -34.92398 -59.28545 10013 ft 318 kts 62°
2026-04-30 22:06 -34.91421 -59.26216 9962 ft 303 kts 62°
2026-04-30 22:06 -34.89547 -59.21751 9302 ft 291 kts 62°
2026-04-30 22:06 -34.88639 -59.19593 8930 ft 287 kts 62°
2026-04-30 22:07 -34.87735 -59.17444 8579 ft 284 kts 62°
2026-04-30 22:07 -34.86841 -59.15321 8237 ft 282 kts 62°
2026-04-30 22:07 -34.85952 -59.13209 7894 ft 279 kts 62°
2026-04-30 22:07 -34.85066 -59.11107 7551 ft 277 kts 62°
2026-04-30 22:08 -34.84193 -59.09035 7213 ft 275 kts 62°
2026-04-30 22:08 -34.83331 -59.06991 6878 ft 273 kts 62°
2026-04-30 22:08 -34.82463 -59.04935 6540 ft 271 kts 62°
2026-04-30 22:08 -34.81607 -59.02908 6207 ft 269 kts 62°
2026-04-30 22:09 -34.80764 -59.00912 5878 ft 267 kts 62°
2026-04-30 22:09 -34.79910 -58.98893 5545 ft 265 kts 62°
2026-04-30 22:09 -34.79084 -58.96942 5304 ft 259 kts 62°
2026-04-30 22:09 -34.78278 -58.95036 5282 ft 245 kts 62°
2026-04-30 22:10 -34.77507 -58.93216 5251 ft 245 kts 62°
2026-04-30 22:10 -34.76737 -58.91398 5177 ft 236 kts 62°
2026-04-30 22:10 -34.76202 -58.89552 5012 ft 229 kts 80°
2026-04-30 22:10 -34.76135 -58.87613 4715 ft 230 kts 95°
2026-04-30 22:11 -34.76781 -58.83849 4123 ft 227 kts 103°
2026-04-30 22:11 -34.77164 -58.82009 3852 ft 226 kts 103°
2026-04-30 22:11 -34.77523 -58.80155 3585 ft 225 kts 102°
2026-04-30 22:12 -34.77855 -58.78335 3414 ft 214 kts 101°
2026-04-30 22:12 -34.78162 -58.76580 3113 ft 208 kts 101°
2026-04-30 22:12 -34.78456 -58.74884 2802 ft 203 kts 101°
2026-04-30 22:12 -34.78740 -58.73244 2552 ft 196 kts 101°
2026-04-30 22:13 -34.79015 -58.71662 2367 ft 183 kts 101°
2026-04-30 22:13 -34.79268 -58.70219 2215 ft 163 kts 101°
2026-04-30 22:13 -34.79496 -58.68922 2204 ft 151 kts 101°
2026-04-30 22:13 -34.79713 -58.67688 2089 ft 149 kts 101°
2026-04-30 22:14 -34.79927 -58.66468 1891 ft 147 kts 101°
2026-04-30 22:14 -34.80143 -58.65252 1696 ft 147 kts 101°
2026-04-30 22:14 -34.80356 -58.64052 1504 ft 146 kts 101°
2026-04-30 22:14 -34.80571 -58.62838 1310 ft 146 kts 101°
2026-04-30 22:15 -34.80784 -58.61645 1119 ft 145 kts 101°
2026-04-30 22:15 -34.80997 -58.60447 927 ft 145 kts 101°
2026-04-30 22:15 -34.81210 -58.59255 737 ft 145 kts 101°
2026-04-30 22:15 -34.81423 -58.58060 549 ft 144 kts 101°
2026-04-30 22:16 -34.81637 -58.56858 354 ft 145 kts 101°
2026-04-30 22:16 -34.81856 -58.55679 158 ft 142 kts 101°
2026-04-30 22:17 -34.82296 -58.53188 72 ft 41 kts 101°
2026-04-30 22:17 -34.82341 -58.52949 72 ft 9 kts 101°
2026-04-30 22:17 -34.82265 -58.52888 72 ft 9 kts 342°
2026-04-30 22:18 -34.82192 -58.52916 72 ft 11 kts 343°
2026-04-30 22:18 -34.82034 -58.52974 72 ft 12 kts 345°
2026-04-30 22:19 -34.81863 -58.53032 72 ft 13 kts 346°
2026-04-30 22:19 -34.81765 -58.53063 72 ft 17 kts 345°